Aérodrome :
LOGIN :

S'inscrire | Disclaimer

   EN    FR    IT 

 










Légende :    VFR   VFR Marginal   IFR   IFR Intensif   IFR Très Intensif
Visi : 
Plafond : 
>= 8 km
>= 3000ft
5 à 8 km
1000 à 3000 ft
1500m à 5 km
500 à 1000 ft
800 à 1500m
200 à 500 ft
< 800m
< 200 ft
Symboles :   Orages  Brouillard  Fortes neiges  Fortes précipitations  Vent > 20 kt
SIGMETs :   Divers  Orages  Givrage  Turbulence  Onde Orograph.  Cendres Volcan.






- Altitude de l'aérodrome : 453 ft
- Code IATA : SBK


LFRT - St Brieuc Armor

DERNIER METAR :
  • 241400Z AUTO 26015KT CAVOK 07/02 Q0999

METARs EXPIRÉS :
  • 241330Z AUTO 26016KT 9999 FEW023 06/02 Q0999
  • 241300Z AUTO 30013KT 270V330 9999 -RA FEW023/// BKN028/// BKN039/// ///CB 05/02 Q0999
  • 241230Z AUTO 25013KT 9999 ///CB 07/03 Q0999
  • 241200Z AUTO 24013KT 9999 FEW019/// ///TCU 06/03 Q0999
  • 241130Z AUTO 28012KT 9999 -RA FEW014/// BKN025/// BKN040/// ///TCU 05/03 Q1000

Prévision TAF périmée.



MET'MAP, la Météo Aéronautique d'un coup d'oeil ! - Copyright ORBIFLY Décembre 2007 - Disclaimer

ORBIFLY MET'MAP TEAM :

Programmation & Développement : Alexandra Zaïnal
Sur une idée originale de : Baudouin d'Aumeries
Assistance à la programmation : Marc-Olivier Méhu
Soutien technique & logistique : Manuel Goepfert

Contact : metmap@orbifly.com




SOURCES & CREDITS :

   NOAA